Tracking 20241 objects as of 26-Jan-2020
HD Live streaming from Space Station
objects crossing your sky now

COSMOS 2251 DEB

Track COSMOS 2251 DEB now!
10-day predictions


NORAD ID: 34620
Int'l Code: 1993-036WR
Perigee: 741.2 km
Apogee: 923.8 km
Inclination: 74.1 °
Period: 101.4 minutes
Semi major axis: 7203 km
RCS: 0.011 m2 (small)
Launch date: June 16, 1993
Source: Commonwealth of Independent States (former USSR) (CIS)
Launch site: PLESETSK MISSILE AND SPACE COMPLEX (PKMTR)

Note: This is SATELLITE DEBRIS
aabbcc
Your satellite tracking list
Your tracking list is empty




NASA's NSSDC Master Catalog

Two Line Element Set (TLE):
1 34620U 93036WR  20025.41118144  .00000786  00000-0  35174-3 0  9993
2 34620  74.0666 147.1269 0126787 354.9253   5.0595 14.20003178562023
Source of the keplerian elements: AFSPC